Terminal Aerodrome Forecast
Issued by NWS

Home | Current Version | Previous Version | Graphics & Text | Print | Product List | Glossary Off
Versions: 1 2 3 4 5 6 7 8 9 10 11 12 13 14 15 16 17 18 19 20 21 22 23 24 25 26 27 28 29 30 31 32 33 34 35 36 37 38 39 40 41 42 43 44

650
FTUS43 KLOT 181407 AAA
TAFGYY
TAF AMD
KGYY 181407Z 1814/1912 23008KT 5SM BR OVC007
      TEMPO 1814/1816 3SM BR BKN005 OVC010
     FM181700 23012KT P6SM BKN015
     FM182000 23010KT P6SM BKN025
     FM190000 22012KT P6SM SCT015 BKN250 WS020/27045KT=

USA.gov is the U.S. government's official web portal to all federal, state and local government web resources and services.